DW7447 Weather Reports


time (UTC)temp
C
wind
direction
speed
KPH
gust
KPH
rain 1hr
cm
rain 24hr
cm
rain mn
cm
humidity
%
barometer
mb
20260506112829 9 6 9.7 20.9 0.00 0.00 0.00 61 1016.1
20260506112329 9 18 6.4 20.9 0.00 0.00 0.00 62 1016.2
20260506111829 9 0 11.3 19.3 0.00 0.00 0.00 62 1016.3
20260506111331 10 55 4.8 20.9 0.00 0.00 0.00 62 1016.3
20260506110829 10 18 11.3 20.9 0.00 0.00 0.00 62 1016.3
20260506110330 10 4 9.7 20.9 0.00 0.00 0.00 62 1016.3
20260506105828 9 18 8.0 22.5 0.00 0.00 0.00 63 1016.2
20260506105328 9 350 12.9 24.1 0.00 0.00 0.00 63 1016.2
20260506104829 10 18 11.3 24.1 0.00 0.00 0.00 61 1016.3
20260506103330 9 41 11.3 22.5 0.00 0.00 0.00 67 1016.3
20260506102830 8 96 11.3 20.9 0.00 0.00 0.00 67 1016.3
20260506101830 8 14 11.3 20.9 0.00 0.00 0.00 67 1016.3
20260506095828 8 16 11.3 25.7 0.00 0.00 0.00 67 1016.3
20260506094330 8 354 9.7 27.4 0.00 0.00 0.00 69 1016.3
20260506093828 8 34 12.9 27.4 0.00 0.00 0.00 69 1016.4
20260506092828 9 6 14.5 27.4 0.00 0.00 0.00 66 1016.3
20260506092328 9 0 14.5 27.4 0.00 0.00 0.00 66 1016.3
20260506091830 9 7 14.5 25.7 0.00 0.00 0.00 67 1016.3
20260506091328 9 0 11.3 25.7 0.00 0.00 0.00 64 1016.3
20260506090829 9 20 16.1 25.7 0.00 0.00 0.00 64 1016.4
20260506090330 8 347 12.9 24.1 0.00 0.00 0.00 63 1016.4
20260506085828 9 333 9.7 19.3 0.00 0.00 0.00 63 1016.3
20260506085328 9 61 8.0 20.9 0.00 0.00 0.00 65 1016.3
20260506084828 8 10 12.9 24.1 0.00 0.00 0.00 65 1016.3
20260506084329 8 16 11.3 24.1 0.00 0.00 0.00 65 1016.3
20260506083828 8 0 12.9 22.5 0.00 0.00 0.00 67 1016.4
20260506083329 7 28 9.7 24.1 0.00 0.00 0.00 68 1016.4
20260506082829 7 10 12.9 24.1 0.00 0.00 0.00 67 1016.3
20260506082328 7 66 11.3 20.9 0.00 0.00 0.00 67 1016.2
20260506081828 7 27 8.0 25.7 0.00 0.00 0.00 68 1016.3
20260506081330 7 63 11.3 25.7 0.00 0.00 0.00 70 1016.4
20260506080829 7 3 14.5 22.5 0.00 0.00 0.00 69 1016.3
20260506080329 7 7 8.0 24.1 0.00 0.00 0.00 69 1016.2
20260506073327 7 34 12.9 22.5 0.00 0.00 0.00 74 1016.1
20260506072808 7 351 9.7 22.5 0.00 0.00 0.00 73 1016.1
20260506072301 7 0 9.7 22.5 0.00 0.00 0.00 72 1016.0
20260506071801 7 1 9.7 20.9 0.00 0.00 0.00 74 1016.0
20260506071301 6 17 12.9 22.5 0.00 0.00 0.00 76 1015.9
20260506070803 6 1 12.9 22.5 0.00 0.00 0.00 80 1015.9
20260506070304 6 72 14.5 22.5 0.00 0.00 0.00 80 1016.0
20260506062305 4 188 3.2 8.0 0.00 0.00 0.00 90 1015.7
20260506061801 4 254 3.2 8.0 0.00 0.00 0.00 90 1015.8
20260506061303 4 254 3.2 8.0 0.00 0.00 0.00 90 1015.6
20260506060804 4 264 3.2 11.3 0.00 0.00 0.00 90 1015.7
20260506060303 4 254 4.8 19.3 0.00 0.00 0.00 91 1015.6
20260506051228 2 306 3.2 8.0 0.00 0.00 0.00 90 1015.7
20260506050728 2 288 1.6 8.0 0.00 0.00 0.00 90 1015.6
20260506050229 2 189 3.2 12.9 0.00 0.00 0.00 90 1015.8
20260506044229 3 251 3.2 9.7 0.00 0.00 0.00 88 1015.6
20260506043229 3 251 4.8 9.7 0.00 0.00 0.00 89 1015.6
20260506042730 3 272 3.2 8.0 0.00 0.00 0.00 89 1015.6
20260506042228 3 289 1.6 6.4 0.00 0.00 0.00 89 1015.6
20260506041728 3 69 0.0 3.2 0.00 0.00 0.00 89 1015.6
20260506041227 4 69 0.0 4.8 0.00 0.00 0.00 89 1015.6
20260506040727 4 69 0.0 4.8 0.00 0.00 0.00 89 1015.5
20260506035728 4 30 1.6 8.0 0.00 0.00 0.00 89 1015.6
20260506035228 4 135 3.2 8.0 0.00 0.00 0.00 89 1015.6
20260506034730 4 31 0.0 6.4 0.00 0.00 0.00 89 1015.6
20260506034230 4 0 1.6 6.4 0.00 0.00 0.00 89 1015.7
20260506033729 4 25 1.6 8.0 0.00 0.00 0.00 88 1015.6
20260506032729 4 18 0.0 4.8 0.00 0.00 0.00 87 1015.7
20260506032229 4 18 0.0 4.8 0.00 0.00 0.00 87 1015.7
20260506031727 4 18 0.0 4.8 0.00 0.00 0.00 87 1015.8
20260506031227 4 18 0.0 4.8 0.00 0.00 0.00 87 1015.7
20260506030728 4 18 0.0 8.0 0.00 0.00 0.00 87 1015.7
20260506025729 4 14 3.2 9.7 0.00 0.00 0.00 87 1015.7
20260506025229 4 4 3.2 9.7 0.00 0.00 0.00 87 1015.7
20260506023727 4 354 6.4 12.9 0.00 0.00 0.00 86 1015.7
20260506023229 4 7 3.2 11.3 0.00 0.00 0.00 86 1015.7
20260506022236 4 0 3.2 9.7 0.00 0.00 0.00 85 1015.7
20260506021728 4 0 4.8 11.3 0.00 0.00 0.00 85 1015.8
20260506021229 4 0 6.4 12.9 0.00 0.00 0.00 85 1015.8
20260506020230 4 353 6.4 12.9 0.00 0.00 0.00 86 1015.7
20260506015730 4 337 6.4 12.9 0.00 0.00 0.00 86 1015.8
20260506015227 4 25 8.0 12.9 0.00 0.00 0.00 86 1015.8
20260506014729 5 11 3.2 17.7 0.00 0.00 0.00 86 1015.9
20260506013730 5 10 6.4 14.5 0.00 0.00 0.00 86 1015.8
20260506013228 5 10 6.4 12.9 0.00 0.00 0.00 85 1015.8
20260506012228 5 13 6.4 12.9 0.00 0.00 0.00 84 1015.8
20260506011727 5 0 4.8 12.9 0.00 0.00 0.00 83 1015.8
20260506011229 5 24 4.8 9.7 0.00 0.00 0.00 82 1015.9
20260506010728 5 35 4.8 9.7 0.00 0.00 0.00 82 1015.9
20260506010227 5 27 3.2 19.3 0.00 0.00 0.00 82 1015.8
20260506005729 5 27 6.4 19.3 0.00 0.00 0.00 82 1015.8
20260506005229 5 10 9.7 17.7 0.00 0.00 0.00 81 1015.9
20260506004227 5 0 9.7 17.7 0.00 0.00 0.00 81 1016.0
20260506003727 5 24 8.0 14.5 0.00 0.00 0.00 81 1016.0
20260506003230 5 13 8.0 14.5 0.00 0.00 0.00 82 1016.1
20260506002728 5 0 8.0 19.3 0.00 0.00 0.00 82 1016.0
20260506002229 5 358 11.3 19.3 0.00 0.00 0.00 82 1016.1
20260506001729 5 354 9.7 19.3 0.00 0.00 0.00 82 1016.1
20260506000727 5 0 11.3 17.7 0.00 0.00 0.00 83 1016.1
20260506000229 5 0 8.0 14.5 0.00 0.00 0.00 83 1016.1
20260505235727 5 16 4.8 14.5 0.00 0.00 0.00 83 1016.1
20260505235227 5 11 4.8 14.5 0.00 0.00 0.00 83 1016.1
20260505234229 5 6 6.4 12.9 0.00 0.00 0.00 83 1016.1
20260505233729 5 4 6.4 12.9 0.00 0.00 0.00 83 1016.2
20260505233228 5 16 3.2 12.9 0.00 0.00 0.00 82 1016.2
20260505232230 5 1 3.2 9.7 0.00 0.00 0.00 82 1016.2
20260505231729 5 20 4.8 12.9 0.00 0.00 0.00 82 1016.4
20260505231230 5 0 6.4 12.9 0.00 0.00 0.00 82 1016.3
20260505230730 5 8 6.4 12.9 0.00 0.00 0.00 82 1016.4
20260505230227 5 20 4.8 14.5 0.00 0.00 0.00 82 1016.4
20260505225727 5 17 8.0 14.5 0.00 0.00 0.00 82 1016.6
20260505224727 5 3 8.0 17.7 0.00 0.00 0.00 82 1016.4
20260505224229 5 13 6.4 17.7 0.00 0.00 0.00 81 1016.4
20260505223730 6 8 6.4 19.3 0.00 0.00 0.00 81 1016.3
20260505223227 6 16 11.3 19.3 0.00 0.00 0.00 82 1016.4
20260505222729 6 20 11.3 19.3 0.00 0.00 0.00 82 1016.4
20260505222228 6 17 6.4 12.9 0.00 0.00 0.00 82 1016.4
20260505221229 6 11 6.4 17.7 0.00 0.00 0.00 81 1016.4
20260505220728 6 21 9.7 17.7 0.00 0.00 0.00 81 1016.6
20260505220230 6 10 9.7 17.7 0.00 0.00 0.00 82 1016.4
20260505215728 6 3 6.4 19.3 0.00 0.00 0.00 82 1016.6
20260505215229 6 20 9.7 19.3 0.00 0.00 0.00 82 1016.6
20260505214728 6 16 8.0 19.3 0.00 0.00 0.00 82 1016.4
20260505214228 6 11 6.4 19.3 0.00 0.00 0.00 81 1016.4
20260505213228 6 16 11.3 20.9 0.00 0.00 0.00 81 1016.4
20260505212728 6 347 9.7 19.3 0.00 0.00 0.00 82 1016.6
20260505211728 6 32 9.7 25.7 0.00 0.00 0.00 82 1016.7
20260505211227 6 23 14.5 25.7 0.00 0.00 0.00 82 1016.7
20260505210728 6 13 11.3 19.3 0.00 0.00 0.00 84 1016.8
20260505210229 6 18 8.0 20.9 0.00 0.00 0.00 84 1016.7
20260505205730 6 34 9.7 20.9 0.00 0.00 0.00 84 1016.7
20260505205228 6 59 11.3 20.9 0.00 0.00 0.00 84 1016.9
20260505204729 6 47 12.9 20.9 0.00 0.00 0.00 84 1016.8
20260505204228 6 47 6.4 17.7 0.00 0.00 0.00 84 1016.8
20260505203226 6 7 8.0 20.9 0.00 0.00 0.00 84 1016.7
20260505202730 6 25 9.7 22.5 0.00 0.00 0.00 84 1016.7
20260505202229 6 28 11.3 22.5 0.00 0.00 0.00 84 1016.7
20260505201728 6 14 11.3 22.5 0.00 0.00 0.00 85 1016.7
20260505201229 6 0 11.3 19.3 0.00 0.00 0.00 85 1016.7
20260505200727 6 47 6.4 17.7 0.00 0.00 0.00 85 1016.6
20260505200231 6 0 9.7 17.7 0.00 0.00 0.00 85 1016.6
20260505195727 6 4 11.3 24.1 0.00 0.00 0.00 85 1016.7
20260505194228 6 7 11.3 25.7 0.00 0.00 0.00 85 1016.6
20260505193228 7 28 16.1 25.7 0.00 0.00 0.00 85 1016.4
20260505192727 7 17 14.5 20.9 0.00 0.00 0.00 85 1016.3
20260505192229 7 16 11.3 22.5 0.00 0.00 0.00 86 1016.3
20260505191728 7 0 12.9 22.5 0.00 0.00 0.00 86 1016.2
20260505191227 7 25 9.7 25.7 0.00 0.00 0.00 86 1016.1
20260505190227 7 56 11.3 29.0 0.00 0.00 0.00 85 1016.1
20260505185227 7 7 12.9 29.0 0.00 0.00 0.00 85 1016.2
20260505184727 7 351 17.7 33.8 0.00 0.00 0.00 84 1016.1
20260505182728 7 41 14.5 32.2 0.00 0.00 0.00 84 1016.0
20260505182226 7 30 12.9 32.2 0.00 0.00 0.00 85 1015.9
20260505181229 7 14 16.1 30.6 0.00 0.00 0.00 85 1016.0
20260505180226 7 0 12.9 25.7 0.00 0.00 0.00 85 1016.0
20260505175228 7 1 16.1 24.1 0.00 0.00 0.00 84 1016.1
20260505174727 7 358 14.5 30.6 0.00 0.00 0.00 84 1016.1
20260505174228 7 0 14.5 30.6 0.00 0.00 0.00 84 1016.1
20260505172727 7 7 12.9 29.0 0.00 0.00 0.00 84 1016.1
20260505171226 8 0 12.9 30.6 0.00 0.00 0.00 82 1016.1
20260505170726 8 27 16.1 30.6 0.00 0.00 0.00 82 1016.1
20260505170228 8 11 17.7 30.6 0.00 0.00 0.00 82 1016.1
20260505165727 8 34 14.5 27.4 0.00 0.00 0.00 82 1016.0
20260505165228 8 358 16.1 27.4 0.00 0.00 0.00 81 1016.1
20260505164728 8 25 17.7 32.2 0.00 0.00 0.00 82 1016.0
20260505163726 8 4 14.5 29.0 0.00 0.00 0.00 83 1016.1
20260505163228 8 6 16.1 30.6 0.00 0.00 0.00 83 1016.0
20260505162726 8 0 16.1 32.2 0.00 0.00 0.00 83 1016.0
20260505162227 8 14 17.7 32.2 0.00 0.00 0.00 83 1016.0
20260505161726 8 353 16.1 30.6 0.00 0.00 0.00 83 1016.0
20260505160728 8 0 14.5 33.8 0.00 0.00 0.00 82 1015.9
20260505160227 8 0 20.9 33.8 0.00 0.00 0.00 82 1015.8
20260505153226 8 0 16.1 29.0 0.00 0.00 0.00 84 1015.6
20260505152728 8 0 16.1 32.2 0.00 0.00 0.00 85 1015.6
20260505152228 8 4 19.3 40.2 0.00 0.00 0.00 84 1015.5
20260505151728 8 355 22.5 40.2 0.00 0.00 0.00 84 1015.6
20260505151227 9 10 19.3 33.8 0.00 0.00 0.00 84 1015.4
20260505150728 9 0 14.5 30.6 0.00 0.00 0.00 84 1015.5
20260505150226 9 354 17.7 30.6 0.00 0.00 0.00 84 1015.4
20260505140227 10 18 16.1 29.0 0.00 0.00 0.00 78 1015.4
20260505130229 10 8 11.3 33.8 0.00 0.00 0.00 82 1015.1
20260505124726 9 0 16.1 30.6 0.00 0.00 0.00 85 1015.1
20260505124228 9 351 19.3 30.6 0.00 0.00 0.00 86 1015.1
20260505123728 9 337 22.5 30.6 0.00 0.00 0.00 84 1015.1
20260505123228 9 1 17.7 29.0 0.00 0.00 0.00 84 1015.1
20260505122228 9 0 14.5 30.6 0.00 0.00 0.00 85 1015.0
20260505121726 9 1 16.1 29.0 0.00 0.00 0.00 86 1015.0
20260505121226 9 357 17.7 25.7 0.00 0.00 0.00 87 1015.0
20260505115228 8 0 14.5 24.1 0.00 0.00 0.00 88 1014.9
20260505114726 9 355 14.5 22.5 0.00 0.00 0.00 90 1014.8
20260505114227 8 37 8.0 20.9 0.00 0.00 0.00 89 1014.9
20260505113226 8 0 14.5 25.7 0.00 0.00 0.00 89 1014.9